PROGRESS-MS 33

Last updated on Wed Aug 19 2026 00:02:05 GMT+0000 (Coordinated Universal Time)

1 68319U 26058A 26230.50196350 .00007616 00000+0 14375-3 0 9992 2 68319 51.6333 351.6800 0007608 59.6839 300.4901 15.49488657581428
UTC large
Height (km)
Speed (km/s)
/
Latitude / Longitude
Inclination (degrees)
Orbital Period (minutes)
Azimuth
Elevation
Range (km)
Doppler Factor

Next 0 passes for location: London (51.5072 / 0.1276)

No passes found over London.
PROGRESS-MS 33